Location: Ammerl�gen
(47.2167°N, 9.6000°E)
Time: 08:58:46
(UTC+00:00)

RS-15 - Pass Details

Date: 09 December 2021
Orbit: 1882 x 2162 km, 64.8° (Epoch: 25 January)

Event Time Altitude Azimuth Distance (km) Brightness Sun altitude
Exits shadow 06:14:04 - 297° (WNW) 4,770 9.3 -7.0°
Reaches altitude 10° 06:14:56 10° 299° (WNW) 4,569 9.3 -6.9°
Maximum altitude 06:25:33 34° 2° (N) 3,124 8.9 -5.3°
Drops below altitude 10° 06:36:26 10° 64° (ENE) 4,687 10.5 -3.7°
Sets 06:40:34 0° 74° (ENE) 5,691 11.2 -3.1°
